Date String (YYYY-MM-DD hh:mm:ss) UTC,Instrument flags,Ambient pressure (hPa),Sample flow (lpm),Bypass flow (lpm),Sample temperature (°C),Ambient temperature (°C),ASC tube jacket temperature (°C),LED temperature (°C),Box temperature (°C),Sample RH (%),Span deviation,Mass concentration (μg/m³),Mass concentration (μg/m³),Mass concentration (μg/m³)
DateTimeUTC,F1_M11,P_M11,Q1_M11,Q2_M11,T1_M11,T2_M11,T3_M11,T4_M11,T5_M11,U1_M11,ZSPAN_M11,X2_M11,X0_M11,X1_M11
2022-03-12 21:00:00,,0824.3,5.00,0.00,24.7,23.9,00.0,33.6,26.5,10.3,0000.0,0001.02,0001.68,0000.63
2022-03-12 21:01:00,,0824.3,5.00,0.00,24.7,23.9,00.0,33.6,26.6,10.1,0000.0,0000.96,0001.57,0000.62
2022-03-12 21:02:00,,0824.3,5.00,0.00,24.7,23.9,00.0,33.7,26.6,10.5,0000.0,0000.96,0001.56,0000.63
2022-03-12 21:03:00,,0824.3,5.00,0.00,24.7,24.0,00.0,33.7,26.6,10.2,0000.0,0000.92,0001.54,0000.62
2022-03-12 21:04:00,,0824.3,5.01,0.00,24.8,24.0,00.0,33.7,26.6,10.1,0000.0,0000.90,0001.53,0000.62
2022-03-12 21:05:00,,0824.3,5.00,0.00,24.8,24.0,00.0,33.7,26.6,09.9,0000.0,0000.92,0001.57,0000.61
2022-03-12 21:06:00,,0824.3,5.00,0.00,24.8,23.9,00.0,33.7,26.6,10.1,0000.0,0000.91,0001.57,0000.61
2022-03-12 21:07:00,,0824.4,5.00,0.00,24.8,24.0,00.0,33.7,26.6,09.8,0000.0,0000.87,0001.48,0000.60
2022-03-12 21:08:00,,0824.3,5.01,0.00,24.8,24.0,00.0,33.7,26.6,10.4,0000.0,0000.88,0001.49,0000.60
2022-03-12 21:09:00,,0824.3,4.99,0.00,24.8,24.0,00.0,33.7,26.6,10.5,0000.0,0000.92,0001.64,0000.61
2022-03-12 21:10:00,,0824.3,5.00,0.00,24.8,24.0,00.0,33.7,26.6,10.1,0000.0,0000.96,0001.72,0000.62
2022-03-12 21:11:00,,0824.4,5.00,0.00,24.8,24.0,00.0,33.7,26.6,09.9,0000.0,0000.96,0001.78,0000.63
2022-03-12 21:12:00,,0824.4,5.00,0.00,24.8,24.0,00.0,33.7,26.6,10.2,0000.0,0000.97,0001.90,0000.64
2022-03-12 21:13:00,,0824.3,5.01,0.00,24.8,24.0,00.0,33.7,26.6,10.2,0000.0,0001.00,0002.20,0000.64
2022-03-12 21:14:00,,0824.4,4.99,0.00,24.8,24.0,00.0,33.7,26.6,10.1,0000.0,0001.00,0002.11,0000.64
2022-03-12 21:15:00,,0824.4,4.99,0.00,24.8,24.0,00.0,33.7,26.6,10.3,0000.0,0001.00,0002.10,0000.65
2022-03-12 21:16:00,,0824.4,5.01,0.00,24.8,24.0,00.0,33.7,26.6,10.0,0000.0,0000.97,0002.05,0000.65
2022-03-12 21:17:00,,0824.3,5.00,0.00,24.8,24.0,00.0,33.7,26.7,10.0,0000.0,0000.97,0002.05,0000.66
2022-03-12 21:18:00,,0824.3,5.00,0.00,24.8,24.0,00.0,33.7,26.6,10.1,0000.0,0000.97,0002.04,0000.66
2022-03-12 21:19:00,,0824.3,5.00,0.00,24.8,24.0,00.0,33.7,26.6,10.2,0000.0,0000.97,0002.08,0000.66
2022-03-12 21:20:00,,0824.3,5.00,0.00,24.8,24.0,00.0,33.8,26.6,10.0,0000.0,0000.95,0002.12,0000.64
2022-03-12 21:21:00,,0824.4,5.00,0.00,24.8,24.0,00.0,33.8,26.7,09.9,0000.0,0000.95,0002.25,0000.64
2022-03-12 21:22:00,,0824.3,5.00,0.00,24.8,24.0,00.0,33.8,26.7,10.0,0000.0,0000.95,0002.23,0000.64
2022-03-12 21:23:00,,0824.3,5.00,0.00,24.8,24.0,00.0,33.8,26.7,09.7,0000.0,0000.94,0002.15,0000.64
2022-03-12 21:24:00,,0824.3,5.00,0.00,24.8,24.0,00.0,33.8,26.6,09.9,0000.0,0000.89,0001.73,0000.63
2022-03-12 21:25:00,,0824.3,5.00,0.00,24.8,24.0,00.0,33.7,26.5,09.8,0000.0,0000.88,0001.71,0000.62
2022-03-12 21:26:00,,0824.3,5.00,0.00,24.8,24.0,00.0,33.8,26.6,10.0,0000.0,0000.88,0001.72,0000.62
2022-03-12 21:27:00,,0824.3,5.00,0.00,24.8,24.0,00.0,33.7,26.6,09.9,0000.0,0000.86,0001.97,0000.61
2022-03-12 21:28:00,,0824.3,5.00,0.00,24.8,24.0,00.0,33.7,26.6,10.0,0000.0,0000.86,0001.96,0000.60
2022-03-12 21:29:00,,0824.3,5.00,0.00,24.8,24.0,00.0,33.7,26.5,10.4,0000.0,0000.86,0001.98,0000.59
2022-03-12 21:30:00,,0824.3,5.00,0.00,24.8,24.0,00.0,33.7,26.5,10.5,0000.0,0000.83,0001.90,0000.59
2022-03-12 21:31:00,,0824.3,5.00,0.00,24.8,24.0,00.0,33.7,26.6,10.4,0000.0,0000.82,0001.83,0000.59
2022-03-12 21:32:00,,0824.2,5.00,0.00,24.8,24.0,00.0,33.7,26.6,10.1,0000.0,0000.81,0001.74,0000.58
2022-03-12 21:33:00,,0824.3,4.99,0.00,24.8,23.9,00.0,33.7,26.6,09.9,0000.0,0000.83,0002.52,0000.58
2022-03-12 21:34:00,,0824.3,5.00,0.00,24.8,23.9,00.0,33.7,26.6,09.9,0000.0,0000.84,0002.94,0000.57
2022-03-12 21:35:00,,0824.2,5.00,0.00,24.8,23.9,00.0,33.7,26.7,09.9,0000.0,0000.85,0003.00,0000.57
2022-03-12 21:36:00,,0824.2,5.00,0.00,24.8,23.9,00.0,33.7,26.7,10.1,0000.0,0000.88,0003.16,0000.57
2022-03-12 21:37:00,,0824.2,5.00,0.00,24.8,23.9,00.0,33.7,26.6,09.9,0000.0,0000.89,0003.20,0000.57
2022-03-12 21:38:00,,0824.2,4.98,0.00,24.8,23.9,00.0,33.7,26.6,09.7,0000.0,0000.88,0002.91,0000.57
2022-03-12 21:39:00,,0824.4,5.00,0.00,24.8,23.9,00.0,33.7,26.6,09.9,0000.0,0000.91,0002.96,0000.57
2022-03-12 21:40:00,,0824.4,5.01,0.00,24.8,23.9,00.0,33.7,26.6,10.1,0000.0,0000.93,0003.03,0000.58
2022-03-12 21:41:00,,0824.3,5.01,0.00,24.8,23.9,00.0,33.7,26.6,10.3,0000.0,0000.94,0003.03,0000.59
2022-03-12 21:42:00,,0824.2,5.00,0.00,24.7,23.9,00.0,33.7,26.6,10.4,0000.0,0000.92,0002.89,0000.58
2022-03-12 21:43:00,,0824.3,5.00,0.00,24.7,23.9,00.0,33.7,26.6,09.8,0000.0,0000.90,0002.80,0000.58
2022-03-12 21:44:00,,0824.2,5.01,0.00,24.7,23.9,00.0,33.7,26.6,10.0,0000.0,0000.87,0002.22,0000.59
2022-03-12 21:45:00,,0824.2,5.01,0.00,24.7,23.8,00.0,33.7,26.6,10.1,0000.0,0000.88,0001.52,0000.59
2022-03-12 21:46:00,,0824.2,5.00,0.00,24.7,23.8,00.0,33.7,26.6,10.1,0000.0,0000.87,0001.46,0000.59
2022-03-12 21:47:00,,0824.2,4.99,0.00,24.7,23.8,00.0,33.7,26.6,10.1,0000.0,0000.86,0001.41,0000.60
2022-03-12 21:48:00,,0824.3,5.00,0.00,24.7,23.8,00.0,33.7,26.6,10.1,0000.0,0000.87,0002.10,0000.60
2022-03-12 21:49:00,,0824.2,5.00,0.00,24.7,23.8,00.0,33.7,26.6,10.1,0000.0,0000.88,0002.61,0000.60
2022-03-12 21:50:00,,0824.3,5.00,0.00,24.7,23.8,00.0,33.7,26.5,10.2,0000.0,0000.87,0002.66,0000.61
2022-03-12 21:51:00,,0824.2,5.00,0.00,24.7,23.8,00.0,33.7,26.5,10.3,0000.0,0000.86,0002.64,0000.61
2022-03-12 21:52:00,,0824.1,5.00,0.00,24.7,23.8,00.0,33.7,26.5,10.1,0000.0,0000.87,0002.68,0000.62
2022-03-12 21:53:00,,0824.1,5.00,0.00,24.7,23.8,00.0,33.6,26.5,10.3,0000.0,0000.88,0002.69,0000.62
2022-03-12 21:54:00,,0824.2,4.99,0.00,24.7,23.8,00.0,33.6,26.5,10.2,0000.0,0000.90,0002.72,0000.63
2022-03-12 21:55:00,,0824.2,5.00,0.00,24.7,23.8,00.0,33.6,26.5,10.1,0000.0,0000.94,0002.82,0000.63
2022-03-12 21:56:00,,0824.3,5.00,0.00,24.7,23.8,00.0,33.6,26.5,10.2,0000.0,0000.92,0002.84,0000.63
2022-03-12 21:57:00,,0824.2,5.00,0.00,24.7,23.8,00.0,33.6,26.5,10.4,0000.0,0000.95,0002.95,0000.63
2022-03-12 21:58:00,,0824.3,4.99,0.00,24.7,23.8,00.0,33.6,26.5,10.2,0000.0,0000.96,0002.94,0000.63
2022-03-12 21:59:00,,0824.3,5.01,0.00,24.7,23.8,00.0,33.6,26.5,10.0,0000.0,0000.98,0002.25,0000.64
